Regional Weather Roundup
Issued by NWS

Home | Current Version | Previous Version | Graphics & Text | Print | Product List | Glossary Off
Versions: 1 2 3 4 5 6 7 8 9 10 11 12 13 14 15 16 17 18 19 20 21 22 23 24 25 26 27 28 29 30 31 32 33 34 35 36 37 38 39 40 41 42 43 44 45 46 47 48 49 50

000
ASUS43 KLSX 280759
RWRMO

WEATHER SUMMARY FOR MISSOURI
NATIONAL WEATHER SERVICE SPRINGFIELD MO
200 AM CST SAT FEB 28 2015

NOTE: "FAIR" INDICATES FEW OR NO CLOUDS BELOW 12,000 FEET WITH NO
       SIGNIFICANT WEATHER AND/OR OBSTRUCTIONS TO VISIBILITY.
       CURRENT SKY AND/OR WEATHER CONDITIONS ARE NOT AVAILABLE FOR
       CHILLICOTHE AND FARMINGTON.

MOZ001>031-035>038-043-044-053-054-280900-
...NORTHERN AND WESTERN MISSOURI...

CITY           SKY/WX    TMP DP  RH WIND       PRES   REMARKS
KANSAS CTY INT CLOUDY    15   6  67 E9        30.52F WCI   3
KANSAS C DTWN  CLOUDY    18   6  59 E7        30.55S WCI   9
LEE`S SUMMIT   CLOUDY    16   7  67 E6        30.53S WCI   7
ST JOSEPH      CLOUDY    15   6  67 SE7       30.55F WCI   5
CHILLICOTHE      N/A     13   4  67 E6        30.59F WCI   4
KIRKSVILLE     CLOUDY     9   2  73 E6        30.59S WCI  -1

$$
MOZ066>068-077>081-088>096-101>105-280900-
...SOUTHWEST MISSOURI...

CITY           SKY/WX    TMP DP  RH WIND       PRES   REMARKS
SPRINGFIELD    CLOUDY    20   9  62 SE6       30.49F WCI  12
JOPLIN         CLOUDY    19  11  70 E10       30.50F WCI   7

$$
MOZ032>034-039>042-045>050-055>058-069>072-280900-
...CENTRAL MISSOURI...

CITY           SKY/WX    TMP DP  RH WIND       PRES   REMARKS
COLUMBIA       CLOUDY    16   5  62 E8        30.57F WCI   5
JEFFERSON CITY CLOUDY    18   6  59 E8        30.60F WCI   8
ROLLA          CLOUDY    18   5  57 E8        30.53F WCI   8
SEDALIA        CLOUDY    18   7  62 E6        30.56S WCI  10
OSAGE BEACH    CLOUDY    19   3  49 E5        30.55R WCI  13

$$
MOZ051-052-059>065-280900-
...EAST CENTRAL MISSOURI...

CITY           SKY/WX    TMP DP  RH WIND       PRES   REMARKS
ST LOUIS INTL  CLOUDY    15   2  56 E6        30.65S WCI   6
SPIRIT OF STL  CLOUDY    16   3  56 E5        30.65R WCI   9
ST CHARLES     CLOUDY    13   2  61 E5        30.66S WCI   5

$$
MOZ072>076-082>087-097>100-106>115-280900-
...SOUTH CENTRAL AND SOUTHEAST MISSOURI...

CITY           SKY/WX    TMP DP  RH WIND       PRES   REMARKS
CAPE GIRARDEAU CLOUDY    20  11  68 NE10      30.61F WCI   9
FARMINGTON     CLOUDY    18  10  73 E7        30.60S WCI   8
POPLAR BLUFF   CLOUDY    22  10  60 NE9       30.59S WCI  12
WEST PLAINS    CLOUDY    19   9  65 NE6       30.52S WCI  11

$$


USA.gov is the U.S. government's official web portal to all federal, state and local government web resources and services.